[Date Prev][Date Next][Thread Prev][Thread Next] - [Date Index][Thread Index][Author Index]
2 Line ISS Keps 11-30
- Subject: [sarex] 2 Line ISS Keps 11-30
- From: "Dave Larsen PhD" <doc@xxxxxxxxxxx>
- Date: Fri, 30 Nov 2001 03:38:34 -0800
ISS
1 25544U 98067A 01334.16247632 .00046857 00000-0 51407-3 0 7754
2 25544 51.6396 333.7772 0010561 33.5177 56.8308 15.62683434172982
----
Via the sarex mailing list at AMSAT.ORG courtesy of AMSAT-NA.
To unsubscribe, send "unsubscribe sarex" to Majordomo@amsat.org
AMSAT Home